CZ-2D R/B

Last updated on Mon Oct 20 2025 00:02:15 GMT+0000 (Coordinated Universal Time)

1 28738U 05024B 25292.28238687 .00046653 00000+0 84281-3 0 9992 2 28738 97.3691 298.4327 0006217 157.9616 202.1904 15.49559857117815
UTC large
Height (km)
Speed (km/s)
/
Latitude / Longitude
Inclination (degrees)
Orbital Period (minutes)
Azimuth
Elevation
Range (km)
Doppler Factor

Next 0 passes for location: London (51.5072 / 0.1276)

Sorry there are no passes over London.